Laurel River Lake Weather Center

Moon Phase Calendar



Laurel River Lake Water Level
Online Cameras

 


      

Current Conditions in Corbin
2/21/2024 4:05:24 AM

34°F
Feels Like 34
Clear
Humidity
72%
Pressure
30.24"
Wind
0
Dew Point
26°F
UV Index
0/10 (Low)
Visibility
6 mi

Hourly Forecast

Date & Time Wed, Feb 21
4:00 AM
Wed, Feb 21
5:00 AM
Wed, Feb 21
6:00 AM
Wed, Feb 21
7:00 AM
Wed, Feb 21
8:00 AM
Wed, Feb 21
9:00 AM
Wed, Feb 21
10:00 AM
Wed, Feb 21
11:00 AM
Wed, Feb 21
12:00 PM
Wed, Feb 21
1:00 PM
Wed, Feb 21
2:00 PM
Wed, Feb 21
3:00 PM
Wed, Feb 21
4:00 PM
Wed, Feb 21
5:00 PM
Wed, Feb 21
6:00 PM
Wed, Feb 21
7:00 PM
Wed, Feb 21
8:00 PM
Wed, Feb 21
9:00 PM
Wed, Feb 21
10:00 PM
Wed, Feb 21
11:00 PM
Thu, Feb 22
12:00 AM
Thu, Feb 22
1:00 AM
Thu, Feb 22
2:00 AM
Thu, Feb 22
3:00 AM
Thu, Feb 22
4:00 AM
Thu, Feb 22
5:00 AM
Thu, Feb 22
6:00 AM
Thu, Feb 22
7:00 AM
Thu, Feb 22
8:00 AM
Thu, Feb 22
9:00 AM
Thu, Feb 22
10:00 AM
Thu, Feb 22
11:00 AM
Thu, Feb 22
12:00 PM
Thu, Feb 22
1:00 PM
Thu, Feb 22
2:00 PM
Thu, Feb 22
3:00 PM
Thu, Feb 22
4:00 PM
Thu, Feb 22
5:00 PM
Thu, Feb 22
6:00 PM
Thu, Feb 22
7:00 PM
Thu, Feb 22
8:00 PM
Thu, Feb 22
9:00 PM
Thu, Feb 22
10:00 PM
Thu, Feb 22
11:00 PM
Fri, Feb 23
12:00 AM
Fri, Feb 23
1:00 AM
Fri, Feb 23
2:00 AM
Fri, Feb 23
3:00 AM
Condition
Clear

Clear

Clear

Clear

Clear

Clear

Clear

Clear

Clouds

Clouds

Clouds

Clouds

Clouds

Clouds

Clouds

Clouds

Clouds

Clouds

Clouds

Clouds

Clouds

Clouds

Clouds

Clouds

Clouds

Clouds

Clouds

Clouds

Clouds

Clouds

Clouds

Clouds

Clouds

Rain

Rain

Rain

Rain

Rain

Rain

Rain

Rain

Rain

Rain

Rain

Rain

Rain

Rain

Rain
Temperature 34°F34°F35°F35°F37°F43°F48°F53°F56°F58°F59°F59°F58°F56°F51°F48°F47°F46°F46°F48°F50°F50°F50°F50°F51°F51°F50°F51°F51°F52°F53°F54°F54°F53°F52°F51°F51°F52°F53°F54°F54°F54°F54°F53°F52°F52°F52°F50°F
Feels Like 30°F30°F31°F32°F33°F40°F46°F50°F54°F55°F57°F57°F56°F53°F49°F45°F44°F43°F43°F45°F46°F46°F48°F48°F48°F48°F48°F49°F49°F51°F52°F52°F52°F51°F51°F50°F50°F51°F52°F53°F53°F53°F53°F52°F51°F52°F51°F46°F
Cloudiness 0%2%2%3%0%0%0%0%11%24%100%95%96%97%98%98%100%100%100%100%99%99%100%87%91%93%95%95%100%100%100%100%100%100%100%100%100%100%100%100%100%100%100%100%100%100%100%100%
Visibility 6 mi6 mi6 mi6 mi6 mi6 mi6 mi6 mi6 mi6 mi6 mi6 mi6 mi6 mi6 mi6 mi6 mi6 mi6 mi6 mi6 mi6 mi6 mi6 mi6 mi6 mi6 mi6 mi6 mi6 mi6 mi6 mi6 mi6 mi6 mi6 mi6 mi6 mi5 mi4 mi3 mi4 mi2 mi6 mi1 mi2 mi0 mi6 mi
Precipitation 0%0%0%0%0%0%0%0%0%0%0%0%0%0%0%0%0%0%0%0%0%0%0%0%0%0%0%0%0%0%0%13%13%31%77%100%100%100%100%100%99%94%95%99%100%100%86%87%
Humidity 72%72%73%74%73%65%56%50%47%46%44%44%51%57%66%74%77%78%75%68%63%62%62%64%65%66%67%70%71%70%68%66%67%75%78%85%89%91%93%93%95%96%97%95%98%98%98%93%
Dew Point 26°F27°F28°F28°F29°F32°F33°F35°F36°F37°F37°F38°F40°F41°F40°F40°F40°F40°F39°F38°F38°F37°F38°F39°F39°F40°F40°F41°F42°F43°F43°F43°F43°F45°F46°F47°F48°F50°F51°F52°F52°F52°F53°F51°F51°F52°F51°F48°F
Pressure 30.24"30.24"30.24"30.27"30.3"30.3"30.27"30.27"30.24"30.18"30.15"30.12"30.12"30.09"30.09"30.09"30.09"30.06"30.06"30.03"30.03"30"30"29.97"29.97"29.91"29.88"29.85"29.85"29.83"29.83"29.83"29.8"29.77"29.71"29.71"29.68"29.65"29.65"29.62"29.62"29.59"29.59"29.59"29.56"29.56"29.59"29.59"
Wind Speed 4.4 mph4.3 mph4.4 mph4.3 mph4.4 mph4.6 mph5.1 mph6.7 mph8 mph8.2 mph7.9 mph8.5 mph8.4 mph8.1 mph6.8 mph5.9 mph5.8 mph5.8 mph6.4 mph8 mph9.5 mph10.6 mph11.6 mph11.5 mph12.5 mph13.7 mph13.7 mph13.4 mph13.8 mph14.7 mph15 mph15.3 mph15.8 mph14 mph13.9 mph12.8 mph12.9 mph13.6 mph12.5 mph12.6 mph10.7 mph9 mph10.6 mph7.6 mph7 mph6.5 mph7.1 mph10 mph
Wind
Direction
166°
SSE
167°
SSE
165°
SSE
164°
SSE
176°
S
171°
S
186°
S
190°
S
192°
SSW
193°
SSW
197°
SSW
204°
SSW
205°
SSW
189°
S
183°
S
173°
S
171°
S
174°
S
179°
S
190°
S
194°
SSW
193°
SSW
192°
SSW
195°
SSW
199°
SSW
195°
SSW
193°
SSW
192°
SSW
197°
SSW
200°
SSW
208°
SSW
212°
SSW
210°
SSW
214°
SW
208°
SSW
207°
SSW
210°
SSW
217°
SW
230°
SW
232°
SW
242°
WSW
245°
WSW
262°
W
258°
WSW
273°
W
291°
WNW
297°
WNW
342°
NNW

Daily Forecast

Date High Low Precip. Humidity
Today
Feb 21

Clouds
59 °F
34 °F
0%
47%
Thursday
Feb 22

Rain
54 °F
50 °F
100%
67%
Friday
Feb 23

Rain
55 °F
41 °F
100%
62%
Saturday
Feb 24

Snow
41 °F
31 °F
95%
73%
Sunday
Feb 25

Clouds
58 °F
30 °F
3%
49%
Monday
Feb 26

Rain
56 °F
49 °F
100%
81%
Tuesday
Feb 27

Rain
65 °F
54 °F
100%
75%
Wednesday
Feb 28

Rain
64 °F
53 °F
100%
90%
Thursday
Feb 29

Snow
44 °F
31 °F
100%
53%
Friday
Mar 1

Clear
55 °F
30 °F
0%
36%
Saturday
Mar 2

Clouds
60 °F
36 °F
0%
47%
Sunday
Mar 3

Rain
62 °F
46 °F
97%
54%
Monday
Mar 4

Rain
52 °F
50 °F
100%
92%
Tuesday
Mar 5

Rain
61 °F
49 °F
55%
82%
Wednesday
Mar 6

Rain
61 °F
48 °F
99%
68%
Thursday
Mar 7

Rain
62 °F
52 °F
100%
82%

Temperature 8-14 Day Outlook



Precipitation 8-14 Day Outlook




Quick Links
Laurel River Lake News
Laurel River Lake Photos
Laurel River Lake Videos




About Us
Contact Us
Site Map
Search Site
Advertise With Us
   
LaurelRiver.USLakes.info
THE LAUREL RIVER LAKE WEBSITE

Copyright 2024, Lakes Online
Privacy    |    Legal